This is the latest recevied weather packets stored in our database for station/object N2PUI. If no packets are shown the sender has not sent any weather packets the latest 10 day(s).
| Time | Temp. | Humidity | Pressure | Rain* | Wind** | Luminosity | Snow |
|---|---|---|---|---|---|---|---|
| 1777673945 | 10.56° C | 60% | 1011.4 hPa | 0 mm | - | 55 W/m² | - |
| 1777673641 | 10.56° C | 59% | 1011.5 hPa | 0 mm | - | 52 W/m² | - |
| 1777673340 | 10.56° C | 58% | 1011.6 hPa | 0 mm | - | 62 W/m² | - |
| 1777673036 | 10.56° C | 57% | 1011.6 hPa | 0 mm | - | 59 W/m² | - |
| 1777672733 | 10.56° C | 57% | 1011.7 hPa | 0 mm | - | 77 W/m² | - |
| 1777672429 | 10.56° C | 57% | 1011.7 hPa | 0 mm | - | 109 W/m² | - |
| 1777672125 | 10.56° C | 57% | 1011.6 hPa | 0 mm | - | 119 W/m² | - |
| 1777671820 | 10° C | 58% | 1011.9 hPa | 0 mm | - | 114 W/m² | - |
| 1777671516 | 10.56° C | 58% | 1011.8 hPa | 0 mm | - | 118 W/m² | - |
| 1777671213 | 10.56° C | 59% | 1011.9 hPa | 0 mm | - | 121 W/m² | - |
| 1777670909 | 10.56° C | 58% | 1011.8 hPa | 0 mm | - | 158 W/m² | - |
| 1777670606 | 11.11° C | 56% | 1011.9 hPa | 0 mm | - | 196 W/m² | - |
| 1777670303 | 11.11° C | 59% | 1011.9 hPa | 0 mm | - | 223 W/m² | - |
| 1777670000 | 11.11° C | 57% | 1011.8 hPa | 0 mm | - | 284 W/m² | - |
| 1777669697 | 11.11° C | 58% | 1011.7 hPa | 0 mm | - | 340 W/m² | - |
| 1777669394 | 11.11° C | 56% | 1011.8 hPa | 0 mm | - | 353 W/m² | - |
| 1777669090 | 11.11° C | 56% | 1011.7 hPa | 0 mm | - | 326 W/m² | - |
| 1777668788 | 10.56° C | 55% | 1011.8 hPa | 0 mm | - | 163 W/m² | - |
| 1777668484 | 11.11° C | 56% | 1011.9 hPa | 0 mm | - | 174 W/m² | - |
| 1777668181 | 11.11° C | 55% | 1011.8 hPa | 0 mm | - | 216 W/m² | - |
| 1777667877 | 11.11° C | 57% | 1011.8 hPa | 0 mm | - | 200 W/m² | - |
| 1777667575 | 11.11° C | 54% | 1011.7 hPa | 0 mm | - | 231 W/m² | - |
| 1777667271 | 11.67° C | 53% | 1011.9 hPa | 0 mm | - | 297 W/m² | - |
| 1777666968 | 11.11° C | 53% | 1011.7 hPa | 0 mm | - | 279 W/m² | - |
| 1777666665 | 11.67° C | 54% | 1011.8 hPa | 0 mm | - | 232 W/m² | - |
* Rain latest hour (hover to see other rain measurements)
** Current wind speed in m/s (hover to see current wind gust speed)